Tracking 35237 objects as of 4-Sep-2026
HD Live streaming from Space Station
objects crossing your sky now

STARLINK-5186

Track STARLINK-5186 now!
10-day predictions
STARLINK-5186 is classified as:


NORAD ID: 54177
Int'l Code: 2022-141W
Launch date: October 28, 2022
Source: United States (US)
Launch site: AIR FORCE WESTERN TEST RANGE (AFWTR)
Your satellite tracking list
Your tracking list is empty




NASA's NSSDC Master Catalog

Two Line Element Set (TLE):
1 54177U 22141W   26247.34751678  .00000326  00000-0  20770-4 0  9997
2 54177  53.1591 269.2715 0001116  76.9624 283.1503 15.34392817213006
Source of the keplerian elements: AFSPC